Location: Hebron
(33.0265°N, 96.8636°W)
Time: 01:57:19
(UTC+00:00)

Cosmos 1538 Rocket - Pass Details

Date: 10 July 2022
Orbit: 752 x 791 km, 74.0° (Epoch: 11 August)

Event Time Altitude Azimuth Distance (km) Brightness Sun altitude
Exits shadow 10:56:18 - 244° (WSW) 2,504 6.0 -6.4°
Reaches altitude 10° 10:57:03 10° 249° (WSW) 2,293 5.8 -6.3°
Maximum altitude 11:00:48 20° 296° (WNW) 1,706 5.5 -5.6°
Drops below altitude 10° 11:04:34 10° 343° (NNW) 2,287 6.7 -4.9°
Sets 11:07:33 0° 360° (N) 3,211 7.7 -4.4°
